Weather Service Report


421 
ASUS41 KRLX 181310
RWRRLX
West Virginia Regional Weather Roundup
National Weather Service Charleston WV
900 AM EDT SAT APR 18 2015

Note: "fair" indicates few or no clouds below 12,000 feet with no
significant weather and/or obstructions to visibility.

WVZ003-181400-
Northern Panhandle of West Virginia
  
CITY           SKY/WX    TMP DP  RH WIND       PRES   REMARKS
WHEELING       SUNNY     55  49  80 CALM      30.07S                  
$$

WVZ009-181400-
Northwest West Virginia
  
CITY           SKY/WX    TMP DP  RH WIND       PRES   REMARKS
PARKERSBURG    SUNNY     58  51  78 CALM      30.09R                  
$$

WVZ006-181400-
Western West Virginia
  
CITY           SKY/WX    TMP DP  RH WIND       PRES   REMARKS
HUNTINGTON     SUNNY     60  52  74 CALM      30.04S                  
$$

WVZ015-181400-
West Central West Virginia
  
CITY           SKY/WX    TMP DP  RH WIND       PRES   REMARKS
CHARLESTON     MOSUNNY   55  54  96 CALM      30.05S                  
$$

WVZ022-031-181400-
North Central West Virginia
  
CITY           SKY/WX    TMP DP  RH WIND       PRES   REMARKS
CLARKSBURG     FOG       51  51 100 CALM      30.07S VSB<1/4          
MORGANTOWN     SUNNY     58  52  80 CALM      30.08S                  
$$

WVZ025-035-042-045-181400-
Southern West Virginia
  
CITY           SKY/WX    TMP DP  RH WIND       PRES   REMARKS
BECKLEY        SUNNY     63  54  72 CALM      30.08F                  
LOGAN            N/A     64  57  77 CALM      30.02F                  
BLUEFIELD      SUNNY     63  51  65 VRB3      30.10S                  
LEWISBURG      SUNNY     56  53  89 CALM      30.10S                  
$$

WVZ047-181400-
Northern Mountains of West Virginia
  
CITY           SKY/WX    TMP DP  RH WIND       PRES   REMARKS
ELKINS         FOG       50  48  93 CALM      30.11S VSB 1/4          
$$

WVZ052-181400-
Eastern Panhandle of West Virginia
  
CITY           SKY/WX    TMP DP  RH WIND       PRES   REMARKS
MARTINSBURG    SUNNY     61  52  72 SE3       30.06S                  
PETERSBURG     SUNNY     53  50  90 CALM      30.09F                  
$$

Return to Home page


Western Regional Climate Center, wrcc@dri.edu